Regional Weather Roundup
Issued by NWS

Home | Current Version | Previous Version | Text Only | Print | Product List | Glossary On
Versions: 1 2 3 4 5 6 7 8 9 10 11 12 13 14 15 16 17 18 19 20 21 22 23 24 25 26 27 28
000
ASUS42 KTBW 261717
RWRFL
FLORIDA REGIONAL WEATHER ROUNDUP
NATIONAL WEATHER SERVICE TAMPA BAY RUSKIN FL
100 PM EDT THU MAY 26 2016

NOTE: "FAIR" INDICATES FEW OR NO CLOUDS BELOW 12,000 FEET WITH NO
SIGNIFICANT WEATHER AND/OR OBSTRUCTIONS TO VISIBILITY.

FLZ001>010-012>015-112-114-115-261800-
PANHANDLE FLORIDA

CITY           SKY/WX    TMP DP  RH WIND       PRES   REMARKS
PENSACOLA      MOSUNNY   84  71  65 SE15      30.14F
PENSACOLA NAS  PTSUNNY   83  72  69 S15       30.14S
MILTON NAS     PTSUNNY   84  70  62 S9G21     30.14
CRESTVIEW      PTSUNNY   85  66  53 VRB6      30.16F
PANAMA CITY    FAIR      85  68  56 S13       30.14F
APALACHICOLA   MOSUNNY   82  70  66 SE9       30.16F

STATION/POSITION SKY/WX   TEMP    WIND        PRES    WAVE   SWELL
                          AIR SEA DIR/SP/G            HT/PER HT/PER
                          (F)     (DEG/KT/KT) (MB)    (FT/S) (FT/S)
30.1N   87.6W              78 80  120/ 12/ 16 1019.8F   2/ 5
29.2N   88.2W              78 79  120/  8/ 10 1020.0F
28.8N   86.0W              80 81  140/ 10/ 12 1020.8F   2/ 4   2/ 5
PANAMA CITY BEAC           77 79  140/ 11/ 12 1021.9R
TOWER C                    77     130/  8/  8 1021.7F
28.5N   84.5W              77 78  110/ 10/ 12 1020.6F   3/ 6   3/ 6

$$
FLZ011-016>038-118-127-128-134-139-239-261800-
NORTH FLORIDA

CITY           SKY/WX    TMP DP  RH WIND       PRES   REMARKS
MARIANNA       SUNNY     86  64  47 SE8       30.14F
TALLAHASSEE    MOSUNNY   87  63  44 E7        30.15F
PERRY          MOSUNNY   86  60  41 SE7       30.17F
LIVE OAK       FAIR      86  63  45 NE6       30.18F
CROSS CITY       N/A     88  59  37 E8        30.15F
LAKE CITY      PTSUNNY   81  63  54 CALM      30.18S
GAINESVILLE    MOSUNNY   84  61  45 MISG      30.16F
WILLISTON      FAIR      88  61  40 E6        30.16F
PALATKA        FAIR      84  61  45 E12       30.17F
MAYPORT NAS    MOSUNNY   80  64  58 NE9       30.18F
JACKSONVILLE   MOSUNNY   84  56  38 E10       30.17F
JAX NAS        MOSUNNY   88  55  32 E12       30.17F
JAX CECIL      NOT AVBL
FERNANDINA BEA FAIR      82  63  51 E9        30.17F
ST AUGUSTINE   SUNNY     81  63  54 E10       30.18F

STATION/POSITION SKY/WX   TEMP    WIND        PRES    WAVE   SWELL
                          AIR SEA DIR/SP/G            HT/PER HT/PER
                          (F)     (DEG/KT/KT) (MB)    (FT/S) (FT/S)
SHELL POINT                80     160/  8/ 10 1020.9
KEATON BEACH               78     220/  8/  9 1021.1F
CEDAR KEY                  79     240/  3/  5 1021.3F
FERNANDINA                 82 80   60/  5/ 11 1022.5S
MAYPORT                    77 78   60/  8/ 10 1022.8R
31.4N   80.9W              76 78  110/  4/  6 1022.6F   2/ 9   2/ 9
ST AUGUSTINE               76 79   90/  8/  9 1022.5F

$$
FLZ040-043>046-052-053-057-058-063-144-261800-
INTERIOR CENTRAL FLORIDA

CITY           SKY/WX    TMP DP  RH WIND       PRES   REMARKS
OCALA          MOSUNNY   84  57  39 NE9       30.15F
THE VILLAGES     N/A     84  59  42 SE7       30.05F
LEESBURG       SUNNY     85  56  37 NE14      30.16F
SANFORD        MOSUNNY   85  54  34 E9G22     30.14F
ORLANDO EXEC   PTSUNNY   85  60  42 E9        30.14F
ORLANDO INTL   MOSUNNY   84  60  44 NE12      30.13F
KISSIMMEE      PTSUNNY   82  61  47 NE7G16    30.14F
WINTER HAVEN   MOSUNNY   85  56  37 NE9       30.15F
LAKELAND       MOSUNNY   82  61  47 E13G21    30.14F
BARTOW         MOSUNNY   82  57  42 E8        30.14F
OKEECHOBEE     MOSUNNY   82  63  51 NE12G17   30.12F

$$
FLZ041-047-054-059-064-141-147-261800-
EAST CENTRAL FLORIDA

CITY           SKY/WX    TMP DP  RH WIND       PRES   REMARKS
ORMOND BEACH   MOSUNNY   81  64  57 NE14      30.17F
DAYTONA BEACH  MOSUNNY   82  64  54 NE13G21   30.17F
DELAND           N/A     82  57  42 NE13      30.17F
NEW SMYRNA BEA MOSUNNY   81  63  54 NE12G18   30.17R
TITUSVILLE     PTSUNNY   82  57  42 E17       30.16F
MELBOURNE      MOSUNNY   82  63  52 E13       30.14F
VERO BEACH     MOSUNNY   83  65  54 NE13      30.13F
FT PIERCE      LGT RAIN  77  66  68 E13       30.13S
STUART         SHOWER    84  66  54 E14       30.12F

STATION/POSITION SKY/WX   TEMP    WIND        PRES    WAVE   SWELL
                          AIR SEA DIR/SP/G            HT/PER HT/PER
                          (F)     (DEG/KT/KT) (MB)    (FT/S) (FT/S)
28.5N   80.2W              77 79   80/ 10/ 12 1021.3R
28.9N   78.5W              76 78   50/ 10/ 12 1021.2R
TRIDENT PIER               81 81   70/ 10/ 12 1021.2R
28.4N   80.5W                 80                N/A     2/ 4
27.5N   80.2W                 80                N/A     3/ 8

$$
FLZ050-056-061-142-242-148-248-149-249-151-251-155-255-
160-260-261800-
WEST CENTRAL FLORIDA

CITY           SKY/WX    TMP DP  RH WIND       PRES   REMARKS
CRYSTAL RIVER  FAIR      86  55  35 NE5G17    30.15S
INVERNESS      FAIR      84  61  45 NE5       30.14F
BROOKSVILLE    SUNNY     85  58  39 VRB7G18   30.14F
ZEPHYRHILLS    FAIR      85  55  36 NE7G20    30.13F
CLEARWATER AIR FAIR      82  55  39 E5        30.13F
ST PETE CLEARW SUNNY     85  59  41 VRB5      30.12F
TAMPA INTL     MOSUNNY   86  56  35 VRB7      30.13F
TAMPA EXEC     MOSUNNY   88  59  37 NE10G16   30.13F
PLANT CITY     SUNNY     86  61  42 E15       30.15F
MACDILL AFB    SUNNY     86  59  40 VRB7G16   30.12F
PETER O KNIGHT SUNNY     90  59  35 E14       30.12F
ST PETERSBURG  SUNNY     84  60  44 E12       30.11F
SARASOTA       SUNNY     87  53  31 E14G20    30.10F
VENICE         NOT AVBL

STATION/POSITION SKY/WX   TEMP    WIND        PRES    WAVE   SWELL
                          AIR SEA DIR/SP/G            HT/PER HT/PER
                          (F)     (DEG/KT/KT) (MB)    (FT/S) (FT/S)
27.3N   84.2W                 81                N/A     3/ 5
CLEARWATER BEACH           81 81   30/  4/  6 1020.9R
MIDDLE TAMPA BAY           79      80/  9/ 12 1020.7F
VENICE                     82 81   60/  7/ 12 1019.2F

$$
FLZ066-069-070-075>078-162-262-165-265-261800-
SOUTHWEST FLORIDA AND KEYS

CITY           SKY/WX    TMP DP  RH WIND       PRES   REMARKS
PUNTA GORDA    MOSUNNY   86  56  35 NE13G21   30.12F
FT MYERS       PTSUNNY   86  57  37 E10       30.09F
SOUTHWEST INTL MOSUNNY   86  55  34 MISG      30.10S
NAPLES         MOSUNNY   87  55  33 NE8       30.08F
MARCO ISLAND   MOSUNNY   84  55  37 NE7       30.10S
MARATHON       SUNNY     85  59  41 NE13      30.07F
KEY WEST NAS   MOSUNNY   83  66  56 E14       30.07F
KEY WEST INTL  CLOUDY    82  67  60 E9        30.07F

STATION/POSITION SKY/WX   TEMP    WIND        PRES    WAVE   SWELL
                          AIR SEA DIR/SP/G            HT/PER HT/PER
                          (F)     (DEG/KT/KT) (MB)    (FT/S) (FT/S)
NAPLES                        83              1019.2F
26.0N   85.6W              81 81  100/ 14/ 16 1019.5F   4/ 6   2/11
DRY TORTUGAS               79      90/ 14/ 15 1018.2F
SAND KEY                   79      90/ 12/ 15 1018.6F
LONG KEY                   80 83   60/  9/ 11 1018.5F
MOLASSES REEF                      60/ 11       N/A

$$
FLZ067-068-071>074-168-172>174-261800-
SOUTHEAST FLORIDA

CITY           SKY/WX    TMP DP  RH WIND       PRES   REMARKS
W PALM BEACH   MOSUNNY   84  59  42 E13       30.10F
FT LAUDER-EXEC MOSUNNY   83  59  44 NE13      30.09F
FT LAUDERDALE  MOSUNNY   84  61  45 E14G20    30.08F
POMPANO BEACH  MOSUNNY   83  63  50 E10       30.09F
PEMBROKE PINES MOSUNNY   85  53  33 NE16G22   30.10F
OPA LOCKA      SUNNY     84  57  39 E14       30.09F
MIAMI          MOSUNNY   84  58  40 VRB6      30.08F
WEST KENDALL   MOSUNNY   85  57  38 E9G20     30.07F
HOMESTEAD      NOT AVBL

STATION/POSITION SKY/WX   TEMP    WIND        PRES    WAVE   SWELL
                          AIR SEA DIR/SP/G            HT/PER HT/PER
                          (F)     (DEG/KT/KT) (MB)    (FT/S) (FT/S)
PORT EVERGLADES            81      80/  6/  9 1019.0F
VIRGINIA KEY               80 81   70/ 10/ 12 1019.4R
LAKE WORTH                 79 80   60/ 10/ 12 1019.6R
FOWEY ROCKS                79 82   60/  7/  8 1019.1F
SETTLEMENT POINT           78      70/ 17/ 19 1019.5F

$$





USA.gov is the U.S. government's official web portal to all federal, state and local government web resources and services.